Location: Escondida
(34.1015°N, 106.8964°W)
Time: 16:51:19
(UTC+00:00)

OAO 3 Rocket - Pass Details

Date: 11 December 2025
Orbit: 613 x 661 km, 35.0° (Epoch: 22 January)

Event Time Altitude Azimuth Distance (km) Brightness Sun altitude
Exits shadow 12:29:44 26° 234° (SW) 1,242 4.3 -18.8°
Maximum altitude 12:32:14 62° 162° (SSE) 710 3.4 -18.3°
Drops below altitude 10° 12:36:53 10° 82° (E) 2,021 6.7 -17.4°
Sets 12:39:16 0° 79° (E) 2,940 7.7 -16.9°
